Orbital Elements at Epoch 2459200.5 (2020-Dec-17.0) TDB
Reference: JPL 19 (heliocentric ecliptic J2000)
Element | Value | Uncertainty (1-sigma) | Units |
e | .1267738641738642 | 4.5895e-08 | |
a | 2.616487268078351 | 1.7126e-08 | au |
q | 2.284785066542341 | 1.2565e-07 | au |
i | 5.87429709586745 | 6.0096e-06 | deg |
node | 345.8376243908199 | 4.839e-05 | deg |
peri | 206.3235859194225 | 5.4404e-05 | deg |
M | 282.8543022507604 | 2.6554e-05 | deg |
tp | 2459531.772645686261 (2021-Nov-13.27264569) | 0.00011543 | TDB |
period | 1545.882089688269 4.23 | 1.5177e-05 4.155e-08 | d yr |
n | .2328767519860424 | 2.2864e-09 | deg/d |
Q | 2.948189469614361 | 1.9297e-08 | au |
|
| | Orbit Determination Parameters
Additional Information
|